Location: A�n Tadlesse
(35.0351°N, 0.5353°E)
Time: 01:15:58
(UTC+00:00)

Cosmos 1570 Rocket - Pass Details

Date: 21 October 2019
Orbit: 763 x 788 km, 74.1° (Epoch: 18 November)

Event Time Altitude Azimuth Distance (km) Brightness Sun altitude
Rises 19:31:32 0° 203° (SSW) 3,248 7.4 -28.4°
Reaches altitude 10° 19:33:55 10° 206° (SSW) 2,327 6.7 -28.9°
Enters shadow 19:38:59 65° 275° (W) 862 4.3 -29.9°
